When you browse on this site, cookies collect data to enhance your experience and personalize the content and advertising you see.
Visit our Privacy Policy to learn more. By continuing to use the site, you agree to this use of cookies and data.
  • In Czech Republic
  • List of Countries
  • For 7 days
  • Water Temperature
  • Weather Map
  • Weather Widgets
  • user-avatar
    Login

    Hourly Weather Santa Bárbara

    Today, 24 February, Monday

    Time Temperature Precipitation Wind Pressure Humidity
    00:00 +17°C° 0 mm 0 mps 722 mmHg 98%
    01:00 +17°C° 0 mm 0 mps 722 mmHg 98%
    02:00 +16°C° 0 mm 0 mps 721 mmHg 97%
    03:00 +16°C° 0 mm 0 mps 721 mmHg 97%
    04:00 +16°C° 0 mm 0 mps 721 mmHg 97%
    05:00 +16°C° 0 mm 0 mps 721 mmHg 97%
    06:00 +16°C° 0 mm 0 mps 722 mmHg 97%
    07:00 +18°C° 0 mm 0 mps 722 mmHg 85%
    08:00 +21°C° 0 mm 0 mps 723 mmHg 74%
    09:00 +24°C° 0 mm 0 mps 723 mmHg 62%
    10:00 +27°C° 0 mm 0 mps 723 mmHg 54%
    11:00 +29°C° 0 mm 0 mps 723 mmHg 46%
    12:00 +34°C° 0 mm 1 mps 722 mmHg 38%
    13:00 +34°C° 0 mm 1 mps 721 mmHg 37%
    14:00 +34°C° 0 mm 1 mps 720 mmHg 36%
    15:00 +34°C° 0 mm 1 mps 719 mmHg 35%
    16:00 +32°C° 0 mm 1 mps 719 mmHg 44%
    17:00 +29°C° 0 mm 1 mps 719 mmHg 53%
    18:00 +24°C° 0 mm 0 mps 719 mmHg 62%
    19:00 +23°C° 0 mm 0 mps 719 mmHg 66%
    20:00 +24°C° 0 mm 1 mps 720 mmHg 69%
    21:00 +23°C° 0 mm 1 mps 721 mmHg 72%
    22:00 +22°C° 0 mm 1 mps 720 mmHg 76%
    23:00 +22°C° 0 mm 1 mps 720 mmHg 79%

    Tomorrow, 25 February, Tuesday

    Time Temperature Precipitation Wind Pressure Humidity
    00:00 +22°C° 0 mm 1 mps 720 mmHg 82%
    01:00 +22°C° 0 mm 1 mps 720 mmHg 85%
    02:00 +21°C° 0 mm 1 mps 719 mmHg 88%
    03:00 +21°C° 0 mm 1 mps 719 mmHg 90%
    04:00 +21°C° 0 mm 1 mps 719 mmHg 91%
    05:00 +21°C° 0 mm 1 mps 720 mmHg 92%
    06:00 +21°C° 0 mm 1 mps 720 mmHg 93%
    07:00 +24°C° 0 mm 1 mps 721 mmHg 80%
    08:00 +26°C° 0 mm 1 mps 721 mmHg 67%
    09:00 +29°C° 0 mm 1 mps 722 mmHg 55%
    10:00 +32°C° 0 mm 1 mps 722 mmHg 48%
    11:00 +34°C° 0 mm 1 mps 722 mmHg 41%
    12:00 +36°C° 0 mm 1 mps 721 mmHg 35%
    13:00 +36°C° 0 mm 1 mps 721 mmHg 34%
    14:00 +36°C° 0 mm 1 mps 720 mmHg 34%
    15:00 +36°C° 0 mm 1 mps 719 mmHg 33%
    16:00 +34°C° 0 mm 1 mps 719 mmHg 42%
    17:00 +31°C° 0 mm 1 mps 719 mmHg 50%
    18:00 +29°C° 0 mm 1 mps 719 mmHg 58%
    19:00 +28°C° 0 mm 1 mps 719 mmHg 64%
    20:00 +27°C° 0 mm 1 mps 720 mmHg 69%
    21:00 +26°C° 0 mm 1 mps 721 mmHg 75%
    22:00 +25°C° 0 mm 1 mps 721 mmHg 77%
    23:00 +24°C° 0 mm 1 mps 720 mmHg 80%

    Day after tomorrow, 26 February, Wednesday

    Time Temperature Precipitation Wind Pressure Humidity
    00:00 +24°C° 0 mm 1 mps 720 mmHg 82%
    01:00 +23°C° 0 mm 1 mps 720 mmHg 83%
    02:00 +23°C° 0 mm 1 mps 720 mmHg 85%
    03:00 +22°C° 0 mm 1 mps 720 mmHg 86%
    04:00 +22°C° 0 mm 1 mps 720 mmHg 87%
    05:00 +22°C° 0 mm 1 mps 720 mmHg 88%
    06:00 +22°C° 0 mm 1 mps 720 mmHg 88%
    07:00 +23°C° 0 mm 0 mps 721 mmHg 77%
    08:00 +26°C° 0 mm 0 mps 722 mmHg 66%
    09:00 +29°C° 0 mm 0 mps 723 mmHg 55%
    10:00 +30°C° 0 mm 0 mps 723 mmHg 51%
    11:00 +33°C° 0 mm 1 mps 722 mmHg 47%
    12:00 +34°C° 0 mm 1 mps 722 mmHg 43%
    13:00 +34°C° 0 mm 1 mps 721 mmHg 44%
    14:00 +35°C° 0 mm 2 mps 720 mmHg 45%
    15:00 +34°C° 0 mm 2 mps 720 mmHg 46%
    16:00 +31°C° 0.4 mm 1 mps 720 mmHg 58%
    17:00 +29°C° 0.4 mm 1 mps 720 mmHg 69%
    18:00 +25°C° 0.4 mm 0 mps 720 mmHg 81%
    19:00 +23°C° 0.9 mm 0 mps 721 mmHg 86%
    20:00 +22°C° 0.9 mm 0 mps 722 mmHg 90%
    21:00 +21°C° 0.9 mm 0 mps 722 mmHg 95%
    22:00 +21°C° 0.1 mm 0 mps 722 mmHg 95%
    23:00 +21°C° 0.1 mm 0 mps 723 mmHg 95%

    27 February, Thursday

    Time Temperature Precipitation Wind Pressure Humidity
    00:00 +21°C° 0.1 mm 0 mps 723 mmHg 96%
    01:00 +20°C° 0.1 mm 0 mps 723 mmHg 96%
    02:00 +20°C° 0.1 mm 0 mps 722 mmHg 96%
    03:00 +22°C° 0.1 mm 1 mps 722 mmHg 96%
    04:00 +22°C° 0.4 mm 1 mps 723 mmHg 96%
    05:00 +20°C° 0.4 mm 0 mps 723 mmHg 97%
    06:00 +20°C° 0.4 mm 0 mps 723 mmHg 98%
    07:00 +22°C° 1.9 mm 1 mps 724 mmHg 98%
    08:00 +23°C° 1.9 mm 1 mps 724 mmHg 98%
    09:00 +23°C° 1.9 mm 1 mps 725 mmHg 98%
    10:00 +23°C° 1.3 mm 1 mps 725 mmHg 98%
    11:00 +23°C° 1.3 mm 1 mps 724 mmHg 98%
    12:00 +23°C° 1.3 mm 1 mps 724 mmHg 97%
    13:00 +23°C° 0.6 mm 1 mps 724 mmHg 98%
    14:00 +22°C° 0.6 mm 1 mps 724 mmHg 98%
    15:00 +22°C° 0.6 mm 1 mps 723 mmHg 98%
    16:00 +22°C° 0.5 mm 1 mps 724 mmHg 98%
    17:00 +21°C° 0.5 mm 1 mps 724 mmHg 98%
    18:00 +21°C° 0.5 mm 1 mps 724 mmHg 98%
    19:00 +21°C° 0.2 mm 1 mps 725 mmHg 98%
    20:00 +20°C° 0.2 mm 1 mps 725 mmHg 98%
    21:00 +20°C° 0.2 mm 1 mps 726 mmHg 98%
    22:00 +20°C° 0.1 mm 1 mps 725 mmHg 98%
    23:00 +20°C° 0.1 mm 1 mps 725 mmHg 98%

    28 February, Friday

    Time Temperature Precipitation Wind Pressure Humidity
    00:00 +19°C° 0.1 mm 1 mps 725 mmHg 98%
    01:00 +19°C° 0.2 mm 1 mps 725 mmHg 98%
    02:00 +19°C° 0.2 mm 1 mps 725 mmHg 98%
    03:00 +19°C° 0.2 mm 1 mps 724 mmHg 98%
    04:00 +19°C° 0.2 mm 1 mps 725 mmHg 98%
    05:00 +19°C° 0.2 mm 1 mps 725 mmHg 98%
    06:00 +19°C° 0.2 mm 1 mps 725 mmHg 98%
    07:00 +19°C° 0.1 mm 1 mps 726 mmHg 98%
    08:00 +19°C° 0.1 mm 1 mps 726 mmHg 97%
    09:00 +19°C° 0.1 mm 1 mps 727 mmHg 97%
    10:00 +20°C° 0 mm 1 mps 727 mmHg 94%
    11:00 +20°C° 0 mm 1 mps 726 mmHg 92%
    12:00 +21°C° 0 mm 1 mps 726 mmHg 89%
    13:00 +21°C° 0.1 mm 1 mps 725 mmHg 90%
    14:00 +20°C° 0.1 mm 1 mps 725 mmHg 92%
    15:00 +20°C° 0.1 mm 1 mps 725 mmHg 93%
    16:00 +20°C° 0.2 mm 1 mps 725 mmHg 94%
    17:00 +19°C° 0.2 mm 1 mps 725 mmHg 96%
    18:00 +19°C° 0.2 mm 1 mps 725 mmHg 98%
    19:00 +19°C° 0 mm 1 mps 726 mmHg 98%
    20:00 +19°C° 0 mm 1 mps 726 mmHg 98%
    21:00 +19°C° 0 mm 1 mps 727 mmHg 98%
    22:00 +19°C° 0 mm 1 mps 727 mmHg 98%
    23:00 +19°C° 0 mm 1 mps 726 mmHg 97%

    29 February, Saturday

    Time Temperature Precipitation Wind Pressure Humidity
    00:00 +18°C° 0 mm 1 mps 726 mmHg 97%
    01:00 +18°C° 0.1 mm 1 mps 726 mmHg 97%
    02:00 +16°C° 0.1 mm 0 mps 726 mmHg 97%
    03:00 +16°C° 0.1 mm 0 mps 725 mmHg 97%
    04:00 +16°C° 0.1 mm 0 mps 725 mmHg 97%
    05:00 +16°C° 0.1 mm 0 mps 726 mmHg 97%
    06:00 +16°C° 0.1 mm 0 mps 726 mmHg 97%
    07:00 +17°C° 0 mm 0 mps 726 mmHg 94%
    08:00 +18°C° 0 mm 0 mps 727 mmHg 92%
    09:00 +18°C° 0 mm 0 mps 727 mmHg 90%
    10:00 +20°C° 0.1 mm 1 mps 727 mmHg 90%
    11:00 +20°C° 0.1 mm 1 mps 726 mmHg 89%
    12:00 +21°C° 0.1 mm 1 mps 726 mmHg 88%
    13:00 +20°C° 0.2 mm 1 mps 725 mmHg 90%
    14:00 +20°C° 0.2 mm 1 mps 725 mmHg 91%
    15:00 +20°C° 0.2 mm 1 mps 724 mmHg 93%
    16:00 +20°C° 0.1 mm 1 mps 725 mmHg 94%
    17:00 +19°C° 0.1 mm 1 mps 725 mmHg 96%
    18:00 +19°C° 0.1 mm 1 mps 725 mmHg 97%
    19:00 +19°C° 0.1 mm 1 mps 726 mmHg 97%
    20:00 +17°C° 0.1 mm 0 mps 726 mmHg 97%
    21:00 +16°C° 0.1 mm 0 mps 727 mmHg 98%
    22:00 +16°C° 0 mm 0 mps 726 mmHg 97%
    23:00 +16°C° 0 mm 0 mps 726 mmHg 97%
    Show more